Погода в Заболотье

Россия / Тверская область     57°18′43″N   34°44′44″E
темп.,
°C
ветер,
м/с
пор.,
м/с
влажн.,
%
обл.,
%
осадки,
мм/ч
давл.,
гПа
погр.,
м
10 мая, пн
пн1000:00+2сз25743 0.0 102386
03:00+1ссз11755 0.0 102510
06:00+3з117125 0.0 102615
09:00+10ю114741 0.0 1027461
12:00+14ююз22355 0.0 10271633
15:00+16ююз223316 0.0 10261658
18:00+16юв12405 0.0 10261073
21:00+9ююв236419 0.0 102745
11 мая, вт
вт1100:00+6ююв227048 0.0 102817
03:00+5ююв227295 0.0 103023
06:00+6ююв127057 0.0 103047
09:00+13юв234729 0.0 1030466
12:00+17вюв34345 0.0 1028990
15:00+19вюв343446 0.0 10271180
18:00+18вюв344610 0.0 1027976
21:00+11вюв267411 0.0 1027103
12 мая, ср
ср1200:00+9юв26841 0.0 1027107
03:00+8юв22940 0.0 102719
06:00+10в139287 0.0 102880
09:00+16вюв24725 0.0 1027533
12:00+21в35555 0.0 10251274
15:00+22в584920 0.1 10222110
18:00+20всв51167100 0.5 10201419
21:00+15в61385100 2.4 1019955
13 мая, чт
чт1300:00+11ююв511891 0.1 1021731
03:00+6вюв289810 0.1 1022287
06:00+7вюв28935 0.0 1022280
09:00+13вюв48625 0.0 1020667
12:00+17юв585573 0.0 10181598
15:00+18юв4856100 0.1 10171674
18:00+17юв3664100 0.2 10161418
21:00+12юв228597 0.4 101650
14 мая, пт
пт1400:00+9ююв229336 0.0 101725
03:00+8ююв229620 0.0 101732
06:00+9ююв249129 0.0 1017114
09:00+15ююв35635 0.0 1016629
12:00+19ююв5749100 0.1 10151969
15:00+20ююв564899 0.1 10141840
18:00+17юв488073 1.3 1014817
21:00+13вюв299684 1.9 1013216